El Paso International Airport El Paso US
ICAO: KELP
IATA: ELP
Category: Medium
Scheduled Services: Yes

Elevation: 3959 ft
TransAlt. 18000 ft.

Airport Communications:
APP:119.15
ATIS:120
CLNC DEL:125
DEP:119.15
GND:121.9
ALBUQUERQUE RDO:122.4
TWR:118.3
UNICOM:122.95

KELP Zoom In..

Runways:

(A) RW 04 length 12020 ft width 150 ft
LOC 111.50 / hdg 39

(B) RW 08L length 5499 ft width 75 ft
LOC 111.50 / hdg 77

(C) RW 08R length 9027 ft width 150 ft
LOC 111.50 / hdg 82

(D) RW 22 length 12020 ft width 150 ft
ILS 111.50 / hdg 219

(E) RW 26L length 9027 ft width 150 ft
LOC 111.50 / hdg 262

(F) RW 26R length 5499 ft width 75 ft
LOC 111.50 / hdg 257

Location; KELP
Day. 23 / Time. 07.51 Zulu
* Altimeter: 29.99
* Temperature: 30° c. 86°f.
* Wind from: 140° Speed 03 kn.
Dewpoint: 05° c.
Visibility: 10 Statute Miles.
Clouds: Few 25000 ft.

KELP 230751Z 14003KT 10SM FEW250 30/05 A2999 RMK AO2 SLP067 T03000050 $


Wind From 140°
Speed 03 kn.

 
 
jpsmedia.com for Web Design worldairports.se 2018   terms of use